This is the latest recevied weather packets stored in our database for station/object K0VSC-1. If no packets are shown the sender has not sent any weather packets the latest 10 day(s).
| Time | Temp. | Humidity | Pressure | Rain* | Wind** | Luminosity | Snow |
|---|---|---|---|---|---|---|---|
| 1777478001 | 6.11° C | 50% | 1020.1 hPa | 0 mm | - | 691 W/m² | - |
| 1777477701 | 6.11° C | 48% | 1020.2 hPa | 0 mm | - | 677 W/m² | - |
| 1777477401 | 6.11° C | 50% | 1020.3 hPa | 0 mm | - | 675 W/m² | - |
| 1777477101 | 6.11° C | 53% | 1020.2 hPa | 0 mm | - | 663 W/m² | - |
| 1777476801 | 5.56° C | 51% | 1020.2 hPa | 0 mm | - | 654 W/m² | - |
| 1777476501 | 5.56° C | 54% | 1020.3 hPa | 0 mm | - | 650 W/m² | - |
| 1777476201 | 5.56° C | 51% | 1020.3 hPa | 0 mm | - | 642 W/m² | - |
| 1777475901 | 5° C | 53% | 1020.3 hPa | 0 mm | - | 701 W/m² | - |
| 1777475601 | 5° C | 58% | 1020.2 hPa | 0 mm | - | 717 W/m² | - |
| 1777475301 | 5° C | 58% | 1020.3 hPa | 0 mm | - | 462 W/m² | - |
| 1777475001 | 4.44° C | 62% | 1020.4 hPa | 0 mm | - | 294 W/m² | - |
| 1777474701 | 4.44° C | 63% | 1020.4 hPa | 0 mm | - | 397 W/m² | - |
| 1777474401 | 4.44° C | 60% | 1020.5 hPa | 0 mm | - | 313 W/m² | - |
| 1777474101 | 4.44° C | 60% | 1020.6 hPa | 0 mm | - | 287 W/m² | - |
| 1777473801 | 3.89° C | 61% | 1020.6 hPa | 0 mm | - | 311 W/m² | - |
| 1777473501 | 3.89° C | 62% | 1020.5 hPa | 0 mm | - | 334 W/m² | - |
| 1777473201 | 3.89° C | 61% | 1020.6 hPa | 0 mm | - | 350 W/m² | - |
| 1777472901 | 3.33° C | 64% | 1020.4 hPa | 0 mm | - | 446 W/m² | - |
| 1777472601 | 3.33° C | 64% | 1020.4 hPa | 0 mm | - | 322 W/m² | - |
| 1777472301 | 3.33° C | 64% | 1020.5 hPa | 0 mm | - | 229 W/m² | - |
| 1777472001 | 3.33° C | 64% | 1020.5 hPa | 0 mm | - | 376 W/m² | - |
| 1777471701 | 2.78° C | 66% | 1020.6 hPa | 0 mm | - | 468 W/m² | - |
| 1777471401 | 2.78° C | 66% | 1020.5 hPa | 0 mm | - | 204 W/m² | - |
| 1777471101 | 2.78° C | 66% | 1020.4 hPa | 0 mm | - | 174 W/m² | - |
| 1777470801 | 2.78° C | 67% | 1020.4 hPa | 0 mm | - | 121 W/m² | - |
* Rain latest hour (hover to see other rain measurements)
** Current wind speed in m/s (hover to see current wind gust speed)